GFSNW_prec_radar_033.txt.gz
Reflectivity
17 19 27 10 -19 13 20 12 8 12 9 15 -1 -20 -20 -20 4 -14 -20 -20 -20 -20 -20 -20 -20 -20 -20 -20 -20 -20 -20 -20 -20 -20 -20 -20 -20 -20 -20 -20 -20 -20 -20 -20
-13 35 26 9 -4 9 19 9 14 18 5 6 -17 -20 -20 -20 -11 -20 -20 -20 -20 -20 -20 -20 -20 -20 -20 -20 -20 -20 -20 -20 -20 -20 -20 -20 -20 -20 -20 -20 -20 -20 -20 -20
-6 30 5 22 -20 3 24 9 16 23 26 -20 -20 -20 -20 -20 -18 -20 -20 -20 -20 -20 -20 -20 -20 -20 -20 -20 -20 -20 -20 -20 -20 -20 -20 -12 -20 -20 -20 -20 -20 -20 -20 -20
25 10 28 -14 -20 -2 26 12 12 8 16 -4 -16 -20 -20 -20 -2 -20 -20 -20 -20 -20 -20 -20 -20 -20 -20 -20 -20 -20 -20 -20 -20 -20 -20 -20 -20 -20 -20 -20 -20 -20 -20 -20
16 12 17 -5 -20 -8 30 23 5 11 -20 -1 -4 -16 -20 -20 -19 -20 -20 -20 -20 -20 -20 -20 -20 -20 -20 -20 -20 -20 -20 -20 -20 -20 -20 -20 -20 -20 -20 -20 -20 -20 -20 -20
16 15 13 12 -2 3 37 22 -3 -2 -18 -16 5 -20 -20 -20 -11 -13 -20 -20 -20 -20 -20 -20 -20 -20 -20 -20 -20 -20 -20 -20 -20 -20 -20 -20 -20 -20 -20 -20 -20 -20 -20 -20
14 16 13 15 -20 -20 24 10 -10 22 0 -0 -20 -20 -20 -20 -1 9 -14 -20 -20 -20 -20 -20 -20 -20 -20 -20 -20 -20 -20 -20 -20 -20 -20 -20 -20 -20 -20 -20 -20 -20 -20 -20
15 9 -20 -20 -20 -20 30 18 -2 32 28 -17 0 -20 -20 -20 8 22 3 -4 1 2 -18 -20 -20 -20 -15 -20 -20 -20 -20 -20 -20 -20 -20 -20 -20 -20 -20 -20 -20 -20 -20 -20
-20 -20 -20 -20 -9 -15 29 20 -18 14 21 11 -11 -20 -20 -20 -12 12 3 -20 -9 -16 -20 -20 -20 -20 -20 -20 -20 -20 -20 -20 -20 -20 -20 -20 -20 -20 -20 -20 -20 -20 -20 -20
-20 -20 -20 -20 -8 -7 28 24 19 11 14 -7 14 10 -20 -20 -20 -1 -16 -20 -20 -20 -20 -20 -20 -20 -20 -20 -17 -20 -20 -20 -20 -20 -20 -20 -20 -20 -20 -20 -20 -20 -20 -20
0 -17 -17 -20 -14 19 9 26 31 -5 -8 8 -18 2 -20 -20 -20 -20 -20 -20 -20 -20 -20 -20 -20 -20 -20 -20 -20 -20 -20 -20 -20 -20 -20 -20 -20 -20 -20 -20 -20 -20 -20 -20
5 16 -13 7 -20 13 9 29 37 15 2 18 -20 -20 -20 -20 -20 -20 -20 -20 -20 -20 -20 -20 -20 -20 -20 -20 -20 -20 -20 -20 -20 -20 -20 -20 -20 -20 -20 -20 -20 -20 -20 -20
11 -20 -18 -1 -5 14 32 25 25 8 17 -17 -20 -20 -20 -20 -20 -20 -20 -20 -20 -20 -19 20 -7 -20 -20 -20 -20 -20 -20 -20 -20 -20 -20 -20 -20 -20 -20 -20 -20 -20 -20 -20
-20 -20 -16 -20 -20 22 37 9 22 17 2 -2 -20 -15 -20 15 -20 -20 -20 -20 -20 25 -3 13 -1 -20 -20 -20 -20 -20 -20 -20 -20 -20 -20 -20 -20 -20 -20 -20 -20 -20 -20 -20
-20 -20 -18 -20 7 22 14 10 14 23 9 13 18 37 24 26 -20 -20 -20 -7 -20 -20 -3 -6 -8 12 -20 -20 -20 -20 -20 -20 -20 -20 -20 -20 -20 -20 -20 -20 -20 -20 -20 -20
-20 -20 -13 27 24 20 30 33 23 11 10 37 33 4 -20 26 -3 -20 -20 -20 -20 -20 18 12 2 -19 9 -20 -20 -20 -20 -20 -20 -20 -20 -20 -20 -20 -20 -20 -20 -20 -20 -20
18 24 26 -20 -17 -3 3 -3 -17 1 23 35 31 23 1 -10 22 19 20 -20 20 27 -10 -20 -20 -20 -20 -20 -20 -20 -20 -20 -20 -20 -20 -20 -20 -20 -20 -20 -20 -20 -20 -20
32 33 21 -12 -20 -20 8 28 15 11 17 16 4 -20 3 -3 16 23 22 3 -6 11 -5 7 -18 -20 -20 -20 -20 -20 -20 -20 -20 -20 -20 -20 -20 -20 -20 -20 -20 -20 -20 -20
-20 0 -20 18 8 20 8 28 19 0 29 31 14 -5 29 28 -20 -14 16 16 24 34 23 5 10 -4 -20 -20 -20 -20 -20 -20 -20 -20 -20 -20 -20 -20 -20 -20 -20 -20 -20 -20
16 13 13 38 20 -19 5 30 30 33 24 -0 -15 6 10 43 -16 -17 6 15 26 49 22 15 23 11 9 0 -20 -19 -9 -17 -20 -20 -4 -19 -17 -20 -20 -20 -20 -20 -20 -20
-5 28 11 16 22 19 24 35 36 26 25 3 -12 8 32 37 19 38 28 22 38 38 26 16 24 18 -2 -10 -13 -20 2 -6 -20 4 7 -2 8 -20 -20 -20 -20 -20 -20 -20
32 26 25 12 2 5 32 34 21 25 13 20 10 -6 33 39 27 6 -11 -12 -9 -11 -20 -20 -20 -20 -20 -20 -20 -20 -20 -20 -9 -20 4 5 -8 -20 -20 -20 -20 -20 -19 -20
25 19 27 29 40 25 15 7 9 6 -8 -8 10 15 23 33 32 22 17 21 8 -20 -20 -20 -20 -20 -20 -20 -20 -20 -20 -18 -15 -20 15 -1 -20 -20 -20 -20 -20 -20 -20 -20
9 14 29 20 22 23 18 16 6 -6 6 3 12 8 -20 -20 12 8 -20 -20 -19 -20 -20 -20 -20 -20 -20 -20 -20 -18 3 28 36 17 -5 5 -14 -19 1 -5 -20 -20 -12 -6
29 28 9 2 4 9 7 6 -19 -9 8 -12 -20 -4 -4 -7 -20 -20 -10 -13 -17 -17 -20 -20 -13 -10 -11 -17 -6 9 1 -7 -16 -15 -5 6 13 3 -20 -20 -8 -5 -17 -20
-14 -13 -16 -18 -6 7 15 14 4 5 -0 -3 -4 -0 -15 12 12 -14 -6 -20 -19 -15 -14 -14 -15 -17 0 -6 -12 -15 -5 -10 5 11 14 12 -0 -19 -20 -20 -20 -20 -20 -20
-20 -1 11 -13 -15 -13 -5 13 21 12 16 -19 -3 -11 9 7 -14 -9 8 5 3 2 9 17 1 2 1 11 13 11 10 7 -11 -12 8 -8 -13 -20 -20 -20 -20 -20 -20 -20

GFSNW_prec_radar_036.txt.gz
Reflectivity
15 -20 -20 5 26 25 21 16 12 -20 -20 20 11 3 -20 -20 -20 -20 -20 -20 -20 -20 -20 -20 -20 -20 -20 -20 -20 -20 -20 -20 -20 -20 -20 -20 -20 -20 -20 -20 -20 -20 -20 -20
26 -12 -20 4 31 33 -8 14 12 12 -20 10 -13 -11 -20 -20 -20 -20 -20 -20 -20 -20 -20 -20 -20 -20 -20 -20 -20 -20 -20 -20 -20 -20 -20 -20 -20 -20 -20 -20 -20 -20 -20 -20
25 4 -20 8 27 29 -20 23 13 27 22 -20 -20 -20 -20 -20 -20 -20 -20 -20 -20 -20 -20 -20 -20 -20 -20 -20 -20 -20 -20 -20 -20 -20 -20 -20 -20 -20 -20 -20 -20 -20 -20 -20
27 19 -20 16 25 32 -20 32 17 -8 18 -6 -20 -20 -20 -20 -20 -14 -20 -20 -20 -20 -20 -20 -20 -20 -20 -20 -20 -20 -20 -20 -20 -20 -20 -20 -20 -20 -20 -20 -20 -20 -20 -20
27 27 2 22 -16 27 11 35 6 15 -20 -20 -0 9 -20 -20 -20 -10 -5 -20 -20 -20 -20 -20 -20 -20 -20 -20 -20 -20 -20 -20 -20 -20 -20 -20 -20 -20 -20 -20 -20 -20 -20 -20
29 27 -7 20 14 29 17 26 -5 -6 -20 -19 3 -20 -20 -20 -20 -19 -8 -20 -19 -20 -20 -20 -20 -20 -20 -20 -20 -20 -20 -20 -20 -20 -20 -20 -20 -20 -20 -20 -20 -20 -20 -20
34 21 15 21 35 27 -20 11 7 -3 9 7 -20 -20 -20 -14 -20 -20 -17 1 -1 -20 -12 -20 -20 -20 -20 -20 -20 -20 -20 -20 -20 -20 -20 -20 -20 -20 -20 -20 -20 -20 -20 -20
31 27 8 33 17 -20 -20 -20 11 21 22 5 9 -9 -20 -11 -20 -20 -20 12 7 0 -12 -18 -20 -20 -20 -20 -20 -20 -20 -20 -20 -20 -20 -20 -20 -20 -20 -20 -20 -20 -20 -20
34 24 1 25 -20 -19 -20 -20 -6 13 26 12 8 8 -19 -20 -20 -20 -20 3 -15 -7 9 1 -10 -19 -20 -20 -20 -20 -20 -20 -20 -20 -20 -20 -20 -20 -20 -20 -20 -20 -20 -20
32 16 8 -6 2 13 -20 -20 5 15 38 -8 4 -4 -20 -20 -20 -20 -20 1 -19 -2 -9 -8 -20 -20 -20 -20 -20 -20 -20 -20 -20 -20 -20 -20 -20 -20 -20 -20 -20 -20 -20 -20
21 18 7 -15 4 19 -20 -20 -10 16 30 3 18 21 -20 -20 -20 -20 -20 -8 12 -13 -20 -20 -20 -19 -20 -7 -20 -20 -20 -20 -20 -20 -20 -20 -20 -20 -20 -20 -20 -20 -20 -20
16 9 7 8 11 12 -20 -20 -20 2 42 -4 17 18 -20 -20 -20 -20 -20 -18 3 -20 -20 -20 13 -20 -13 -20 -20 -20 -20 -20 -20 -20 -20 -20 -20 -20 -20 -20 -20 -20 -20 -20
23 25 18 9 14 14 -20 -20 -19 16 25 1 29 -9 -20 -20 -20 -20 -20 -20 -20 -20 -20 -20 11 12 -13 -20 -20 -20 -20 -20 -20 -20 -20 -20 -20 -20 -20 -20 -20 -20 -20 -20
24 1 -2 23 9 -1 -20 -3 18 22 26 16 20 -20 -3 -20 -20 -20 -20 -20 -20 -20 10 -8 -20 7 -16 -20 -20 -20 -20 -20 -20 -20 -20 -20 -20 -20 -20 -20 -20 -20 -20 -20
13 -10 -20 4 2 21 -20 -18 36 33 30 21 10 -15 26 -10 -20 -20 -20 -20 -20 -20 8 -13 -16 -8 16 -20 18 -20 -20 -20 -20 -20 -20 -20 -20 -20 -20 -20 -20 -20 -20 -20
19 20 21 -18 -20 8 12 17 29 14 27 9 38 -3 21 -20 -20 -0 -20 -20 -20 -20 -20 17 15 -20 9 -20 -20 -20 -1 -20 8 -20 -20 -20 -20 -20 -20 -20 -20 -20 -20 -20
-20 -20 -14 -20 -20 20 3 23 7 -4 12 28 13 -20 -20 -8 22 16 6 -20 -1 -12 -16 20 10 13 7 10 -15 -20 -19 6 -19 -1 -19 -20 -20 -20 -20 -20 -20 -20 -20 -20
-20 -20 -13 14 36 6 -6 1 23 18 12 10 -4 -11 -0 6 -4 17 15 -20 -20 1 -3 -14 13 15 -20 -19 -20 -20 -16 -11 -11 -12 -20 -16 -20 -20 -20 -20 -20 -20 -20 -20
17 35 39 22 27 -12 -20 9 9 5 -18 -18 5 -9 26 28 23 23 24 -9 -5 -20 14 -17 13 -20 -14 -20 -20 -18 -20 -20 -19 -4 6 -20 -20 -20 -20 -20 -20 -20 -20 -20
21 -12 -20 -20 -20 -9 -20 26 21 15 12 7 35 20 12 -8 18 28 21 20 -2 -20 -20 -19 19 -20 -20 -20 6 -13 -20 -5 -19 6 -13 -19 -20 -20 -20 -20 -20 -20 -20 -20
-13 -15 -8 -14 -2 24 39 43 36 27 -6 -0 12 2 12 8 0 17 32 18 -15 -20 -20 -20 -20 -18 2 -15 -2 6 -6 5 -4 -20 -1 11 -4 -20 -20 -20 -20 -20 -20 -20
7 35 19 23 6 21 29 -0 23 11 -4 10 -18 -5 -20 7 19 25 40 0 25 17 5 -10 7 38 32 25 18 30 32 27 16 8 -12 -20 -20 -20 -20 -20 -14 14 18 -0
22 32 25 -10 -20 -15 -1 5 20 20 -18 9 26 31 23 13 20 43 31 20 18 21 36 21 4 40 29 34 27 10 -18 -20 -20 -20 -20 -20 -20 12 7 23 30 21 -11 -20
12 21 -20 -3 1 15 14 18 16 18 17 25 26 22 6 20 33 35 32 28 22 20 14 -20 -13 5 14 15 8 -18 -20 -20 -19 -16 -3 21 21 27 27 22 18 -0 -13 8
3 33 9 21 21 21 24 19 18 6 -1 14 16 11 -10 -6 8 24 10 -0 -5 -1 -8 13 17 15 16 14 23 18 -2 13 21 14 5 -0 7 10 8 8 5 8 -0 -17
15 21 19 18 20 16 16 13 5 18 23 15 4 22 10 7 -20 -18 2 15 -0 -5 6 11 23 15 14 13 8 6 13 10 -1 7 8 4 -9 -13 0 -6 -7 -11 -12 -20
14 9 7 -5 -8 -6 -8 -13 10 19 9 5 -15 -9 -8 -18 -20 -20 -13 -6 7 15 16 16 20 19 17 13 8 6 -5 -4 6 1 2 4 7 10 8 0 -9 -10 -10 -20

GFSNW_prec_radar_042.txt.gz
Reflectivity
13 14 16 14 8 18 22 14 25 18 -15 8 20 15 -20 -20 -20 -20 -20 -20 -20 -20 -20 -11 16 -6 -20 -20 -20 -20 -20 -20 -20 -20 -20 -20 -20 -20 -20 -20 -20 -20 -20 -20
28 14 16 19 25 26 21 8 20 23 20 -5 7 -1 -20 -20 -20 -20 -20 -20 -20 -20 -20 -20 5 7 -15 -20 -20 -20 -20 -20 -20 -20 -20 -20 -20 -20 -20 -20 -20 -20 -20 -20
5 23 22 22 29 28 15 15 25 32 25 -20 -20 -20 6 -12 -20 -20 -20 -20 -20 -20 -20 -20 -20 0 -20 -20 -20 -20 -20 -20 -20 -20 -20 -20 -20 -20 -20 -20 -20 -20 -20 -20
8 19 20 26 32 32 19 24 19 17 12 9 -20 -20 -20 -20 -2 -20 -20 -20 -20 -20 -20 -20 -20 -14 -20 -20 -20 -20 -20 -20 -20 -20 -20 -20 -20 -20 -20 -20 -20 -20 -20 -20
11 -20 24 35 35 36 30 31 17 16 -20 -20 -20 -20 -11 -20 -20 -20 -20 -20 -20 -20 -20 -20 7 8 4 -11 -20 -20 -20 -20 -20 -20 -20 -20 -20 -20 -20 -20 -20 -20 -20 -20
12 11 18 33 37 38 39 24 -16 13 -19 -20 -5 9 -20 -20 -20 -20 -20 -20 -11 -5 -19 15 14 8 6 -16 -20 -20 -20 -20 -20 -20 -20 -20 -20 -20 -20 -20 -20 -20 -20 -20
12 12 -7 24 41 35 36 -14 -2 20 10 8 -19 -20 -20 -20 -20 -19 -20 -20 -20 -3 5 18 7 -8 2 -20 -20 -20 -20 -20 -20 -20 -20 -20 -20 -20 -20 -20 -20 -20 -20 -20
25 12 6 18 39 33 31 -15 5 5 14 -3 -13 -6 -20 -20 -20 -2 -20 -20 -20 -1 8 14 11 2 -17 -20 -20 -20 -20 -20 -20 -20 -20 -20 -20 -20 -20 -20 -20 -20 -20 -20
22 13 0 15 39 31 25 10 -18 16 -18 -4 -20 2 2 -14 -6 21 -18 -20 -20 -8 10 -2 -18 -16 19 -3 -20 -20 -20 -20 -20 -20 -20 -20 -17 -20 -20 -20 -20 -20 -20 -20
15 20 12 22 40 29 15 8 -7 15 11 -20 -13 21 13 -1 -9 -20 -20 -20 8 -20 -6 -7 -20 -20 -7 4 18 -20 -20 -20 -20 -20 -20 -20 -20 -20 -20 -20 -20 -20 -20 -20
19 -6 -17 21 36 30 6 5 -14 -11 23 23 -2 -20 23 19 18 21 -20 5 13 -20 -20 -20 -20 -20 -20 -18 -18 -20 -20 -20 -20 -20 -20 -20 -11 -20 -20 -20 -20 -20 -20 -20
-17 4 0 29 35 34 14 1 5 21 19 5 -7 -16 2 29 -12 -20 22 -20 -20 -20 -20 -20 -20 -16 -20 -18 -20 -20 -16 -18 -20 -20 -20 -20 -20 -20 -20 -20 -20 -20 -20 -20
1 -16 10 31 34 28 7 9 9 -20 -18 -19 3 5 27 12 6 -20 -14 -20 -20 -20 -20 -20 -18 -20 -20 -20 -20 0 -20 -1 -12 -17 -20 -20 -20 -20 -20 -20 -20 -20 -20 -20
9 13 28 33 35 33 6 -3 -20 1 -20 1 -3 -20 -10 30 20 -20 -20 -20 -20 -18 -20 -20 -6 -19 -20 -13 -20 -18 -12 -3 -20 -20 -20 -20 -20 -20 -20 -20 -20 -20 -20 -20
12 27 32 35 30 13 -6 -15 10 1 -10 5 -20 -20 5 18 4 -12 -7 -20 -5 -20 -17 -20 -20 -20 -20 -20 -20 -20 -20 -20 -20 -20 -13 11 -2 -20 -20 -20 -20 -20 -20 -20
31 31 33 30 22 2 -19 27 -4 -17 -20 -18 14 20 -12 -11 -20 -20 -20 -20 -20 -7 1 11 -20 -20 -20 -20 -20 -20 -20 -20 -20 -20 -16 -2 -15 -2 -20 -20 -20 -20 -20 -20
23 22 26 21 5 -6 21 -2 -5 -20 -20 -15 1 5 16 21 16 28 20 10 -12 -19 14 17 -1 -3 -19 -20 -20 -20 -18 -20 -20 -20 -20 -20 -18 6 -2 1 -20 -20 -20 -20
24 23 27 27 20 5 -5 -2 -20 -20 -20 -3 21 4 24 22 26 26 25 26 26 21 3 -20 4 -3 -17 8 -20 -14 -3 -20 -15 -20 -20 -20 -6 -6 -20 -20 -14 -16 -20 -20
12 18 12 5 -7 -0 18 -3 -2 -20 18 24 4 -2 8 18 -16 20 21 19 15 9 -11 19 18 13 9 -5 -20 -20 -20 -20 2 1 -13 -20 -20 -20 -20 -20 -17 -4 -7 -10
-20 -20 -7 -19 -4 27 28 23 24 17 19 20 -19 -19 31 28 24 19 16 21 23 11 8 -4 -16 11 -20 -20 -20 -20 -20 -20 -20 -20 -20 -20 -20 9 17 -0 -12 -20 -20 -20
-10 0 -6 6 -20 22 20 -8 33 26 -8 6 -0 16 22 35 5 -7 19 27 6 18 5 2 -9 -11 -20 -20 -20 -20 -20 -20 -20 -20 -20 -20 -20 -20 -20 -20 -20 -20 -20 -10
28 22 8 20 -9 9 -8 -15 27 18 -11 2 25 28 17 38 19 -8 -19 -1 27 35 -4 8 5 3 -18 -20 -2 -20 -20 -20 -20 -20 -20 -20 -20 -20 -20 -20 -20 -14 17 32
28 26 -13 11 -9 18 -1 15 5 2 -1 -2 7 24 8 -16 -20 -20 -20 6 12 17 5 8 11 9 -9 -20 -20 -17 -20 -20 -20 -20 -20 -20 -20 -6 -19 -17 2 20 20 18
-20 12 -13 15 -17 7 5 1 -2 6 6 -9 3 4 -10 -2 -19 7 23 24 24 21 15 11 9 14 5 23 23 1 4 8 9 4 16 16 22 30 31 28 25 23 24 23
19 10 -1 9 19 16 16 21 13 9 6 9 0 -1 14 19 28 18 29 13 7 1 0 1 -2 16 17 20 23 24 23 21 17 9 18 24 26 26 24 19 20 18 16 15
8 5 17 15 19 23 24 25 23 25 25 36 36 31 27 20 17 11 7 1 -11 -1 5 14 16 18 20 20 19 20 20 15 16 19 19 12 -1 2 12 14 13 15 14 11
5 18 21 24 25 25 25 25 22 23 27 18 18 6 -2 -0 2 -11 -5 4 10 14 15 18 21 21 20 18 10 1 -8 -3 -3 -0 1 3 8 7 8 9 13 11 6 -7

GFSNW_prec_radar_045.txt.gz
Reflectivity
14 12 11 17 16 16 27 24 18 15 -20 27 13 11 -20 -20 -20 -20 -20 -20 -20 -20 -20 -20 -20 -20 -20 6 11 -20 -20 -20 -11 -20 -20 -20 15 -20 -20 -20 -20 -20 -20 -20
9 6 22 13 15 24 24 29 16 24 16 17 10 -20 -20 -20 -20 -20 -20 -20 -20 -20 -20 -20 -20 -20 -20 8 16 -6 -20 -20 -20 -20 -20 -20 -20 -8 -20 -20 -20 -18 16 -20
-15 7 23 27 19 26 25 28 24 27 20 -18 -8 -20 -20 -20 -20 -20 -20 -20 -20 -20 -20 -20 7 -20 -20 -2 8 4 -20 -20 -20 -20 -20 -20 -20 -20 -20 -20 -20 -20 -20 -20
-5 -20 -4 24 22 28 29 32 23 18 16 9 -20 -20 -20 -20 -20 -20 -19 -16 -20 -20 -20 -20 -19 -1 -16 -20 8 2 -20 -20 -20 -20 -18 1 -4 -20 -20 -20 -20 -20 -20 -20
10 17 -6 13 19 28 32 38 10 11 -20 5 -20 -20 -20 -20 -20 -20 -20 -19 -14 -19 -20 -13 18 14 -1 -16 -7 3 -20 -20 -20 -20 -20 -20 -20 -20 -20 -20 -20 -20 -20 -20
-14 -16 11 -17 33 37 38 38 -1 8 -18 3 4 -5 -20 -20 -20 -20 -20 -20 -14 18 -15 12 -9 -16 -14 -16 -10 -19 -20 -20 -20 -20 -20 -20 -20 -20 -20 -20 -20 -20 -20 -20
3 10 -20 11 23 42 38 33 -2 13 19 21 -14 -20 -20 -20 -20 -20 -20 -20 -13 6 4 14 -1 -20 8 -18 -6 -19 -20 -20 -20 -20 -20 -15 -19 -20 -20 -20 -20 -20 -20 -20
15 13 -14 8 6 27 22 25 -1 12 17 5 -8 -20 -20 -20 -20 -5 -20 -20 -20 -19 30 -18 -16 -19 -16 8 2 -10 -8 -20 -20 -15 -20 -20 -20 -20 -20 -20 -20 -20 -20 -20
17 18 13 10 -9 20 39 -3 -19 16 17 11 -20 -19 -20 -20 -20 -19 12 -15 -20 9 21 -20 -20 -20 -20 1 3 18 8 -6 18 -17 -20 -7 -16 -20 -20 -20 -20 -20 -20 -20
11 26 13 10 -3 15 41 32 12 15 12 -7 18 22 -14 -20 -20 -8 5 -4 25 -20 21 -10 -20 -20 -20 -20 19 20 -5 -8 -20 24 -0 -20 -19 -20 -20 -20 -20 -20 -20 -20
18 17 21 15 -9 12 34 38 21 -8 16 -11 12 22 -9 -14 -16 18 -8 21 18 21 24 -12 -20 -20 -20 -20 -20 -8 6 -5 -17 6 2 -14 -19 -4 -17 -20 -20 -20 -20 -20
14 15 26 9 -20 26 37 26 -2 14 23 17 31 -4 21 10 -1 -20 -20 29 5 -20 9 -5 -20 -20 4 -20 -20 3 13 17 23 -20 -20 -20 -3 -5 -20 -20 -20 -20 -20 -20
20 32 13 10 -17 27 15 36 16 22 24 30 20 3 -20 12 11 -9 26 3 -8 -20 -20 -20 -20 -18 -20 -6 -17 1 -9 12 12 14 -13 -20 -2 4 -20 -20 -20 -20 -20 -20
15 12 -3 6 13 25 32 13 19 18 23 24 20 -20 -20 -20 21 24 7 33 -3 2 -20 1 -5 -20 -20 4 -20 -5 12 -16 -20 -20 -20 -20 -20 -15 6 -18 -20 -20 -20 -20
-16 -0 3 16 29 34 19 9 12 24 8 15 -6 -20 -20 10 -11 25 -8 14 16 21 7 15 18 -20 -20 -20 -20 -20 -20 -20 -20 -20 -20 8 -8 20 15 -19 -20 -20 -20 -20
-13 8 33 29 30 20 22 34 29 22 24 -20 7 16 1 -6 -0 21 -18 20 20 20 -20 17 -20 -20 -20 -20 -20 -20 -20 -20 -20 -20 -7 8 -2 -10 7 5 -4 -20 -20 -20
31 27 25 18 12 12 22 23 7 -4 -20 -20 -20 8 -13 -18 12 11 -11 4 -8 20 22 0 16 -20 -20 -20 -20 -20 -20 -20 -20 -3 -2 -17 -20 -20 -6 -17 -20 -18 -12 -20
19 17 21 27 31 25 15 2 -20 -20 -11 -20 -16 15 -2 -3 4 18 20 24 22 19 18 -2 11 -7 13 10 -20 -20 -20 -20 -14 -7 -20 -20 -20 -20 -20 -5 -9 -19 4 -9
19 24 27 17 23 24 9 -6 -20 -20 13 3 -14 18 15 -0 6 15 18 30 21 18 5 15 11 3 16 10 -20 -20 -20 -20 -20 -20 -14 -20 -20 -20 -17 0 3 3 -20 -20
7 9 17 -3 7 -17 -20 -20 17 9 -20 -10 20 5 15 35 42 30 28 28 23 5 -1 14 21 5 -20 -20 -20 -20 -20 -20 -20 -20 -20 -20 -20 -20 -20 -20 -19 -20 -20 -11
-15 -4 11 18 23 21 32 18 13 23 20 -15 -5 20 31 25 30 36 5 -7 20 19 12 28 20 5 1 -3 0 -9 -20 -20 -20 -20 -20 -20 -20 -20 -20 -20 -20 -20 -20 -20
-20 2 -14 16 22 21 -15 -1 -5 -1 -1 17 8 17 3 -13 30 29 5 38 23 2 5 18 -3 2 1 -2 -11 -20 -20 -20 -20 -10 0 -18 -20 -20 -20 -20 -20 -20 -20 -20
-4 -10 -13 22 -7 -10 -20 0 19 24 -1 14 23 30 24 27 37 28 -7 8 17 38 28 19 13 3 0 3 -3 -20 -20 -20 -20 -20 -20 -20 -20 -20 -20 -20 -20 -20 -17 0
-13 9 -15 14 6 5 -2 0 15 28 19 12 25 32 45 32 18 33 30 16 11 8 10 10 6 9 6 2 1 -12 -9 0 5 5 8 4 -7 2 3 9 20 24 26 27
-11 -20 -0 4 15 -1 2 4 2 5 4 21 16 30 25 1 4 -3 8 -6 1 2 7 6 4 13 10 13 13 13 13 15 18 20 21 19 21 21 19 18 18 17 17 20
5 4 1 4 15 9 -2 -1 -15 -3 -5 29 27 22 16 12 -2 -14 0 -7 0 7 8 11 15 16 16 14 13 16 16 15 18 21 20 17 15 14 16 15 13 15 14 12
9 11 17 11 4 10 6 5 2 22 24 11 15 2 1 8 12 15 11 15 13 10 10 13 16 17 16 15 13 14 13 13 15 16 17 18 18 16 14 12 12 9 9 6

GFSNW_prec_radar_048.txt.gz
Reflectivity
4 11 14 14 14 18 21 18 28 15 -20 15 14 5 -20 -20 -20 -20 -20 -20 -20 -20 -20 -18 -20 -20 -20 -15 -10 9 -20 -1 6 7 -20 -20 -20 -20 -20 -20 -20 15 -20 -19
6 -12 12 19 15 18 20 27 23 21 -11 1 8 -10 -20 -20 -20 -20 -20 -20 -20 -20 -1 -20 -7 2 -14 -7 -20 -13 -18 -3 7 -8 -19 -1 -20 -20 -20 -20 -20 -20 -20 -20
6 11 18 18 25 24 25 29 24 21 25 -18 -10 -20 -20 -20 -20 -20 -20 -20 -20 -20 -9 -20 7 -19 -19 4 -20 -17 5 -13 -20 -20 -11 -20 -20 -20 -20 -20 7 1 -13 -20
20 22 15 19 29 30 30 34 24 3 19 6 -20 -1 -20 -20 -20 -20 -20 -20 -20 -20 -20 -5 27 -4 -3 -18 -20 -18 -16 -1 -20 -20 3 -7 -20 -20 -20 -17 -12 -20 -20 -20
26 16 10 12 15 28 34 37 13 8 -20 6 4 3 -20 -20 -20 -20 -20 -20 -20 -20 9 20 21 15 12 10 -20 -20 5 -20 -20 -20 3 -2 17 -17 -20 -20 -20 -20 -20 -20
7 0 11 3 -7 23 41 39 -3 -1 -18 -1 13 -13 -20 -20 -20 -20 -20 -20 -20 -20 -20 -20 22 4 11 7 -20 -14 -20 -20 -20 -20 -2 -5 -7 -11 -20 -15 6 -17 -20 -20
-1 -11 16 22 13 26 39 38 4 22 16 15 -13 -20 -20 -20 -20 -20 -20 -20 -20 -20 -20 8 32 -6 -13 9 20 -20 -20 -20 -20 -20 1 3 -18 -20 -20 -20 -20 -20 -20 -20
5 -17 6 -20 -3 12 35 38 11 23 15 -3 -8 -20 -20 -20 -4 -7 -20 -20 -20 -20 -20 3 32 35 37 9 -9 -15 -18 -19 -20 -20 -17 -18 -12 -20 -20 -20 -20 -20 -20 -20
15 13 -20 8 -1 0 19 41 35 16 18 15 -20 -6 -20 -20 12 -19 -20 -20 -20 -20 -20 29 26 31 17 21 -17 -20 11 -16 -20 10 -20 -5 3 -20 -20 -20 -20 -20 -20 -20
13 16 15 -10 14 16 21 36 31 24 32 -5 -11 17 -12 -10 -6 -15 -20 -20 -10 3 14 23 -7 19 11 -6 -8 -18 -20 19 13 -7 11 -17 6 7 -3 -20 -18 -18 -20 -19
7 7 15 12 15 18 21 32 35 37 35 17 -13 -20 3 1 16 13 -20 -10 -20 24 35 18 6 10 10 -20 -20 -20 -19 7 17 15 22 -20 -19 13 6 -15 -16 -19 -20 -15
13 12 7 21 22 19 25 9 31 25 24 31 11 -20 0 3 -19 -20 -20 -20 -20 8 35 24 13 6 4 -20 -20 -20 -5 -16 21 22 -6 -20 0 13 14 8 -19 -20 -20 -19
-13 13 -4 34 21 28 22 24 30 40 33 0 -20 2 24 31 0 -14 -9 -20 -20 -19 -20 -14 -19 3 -20 -20 -20 -20 -19 5 -0 6 2 -17 7 10 14 -7 -20 -20 -20 -13
13 0 26 22 23 24 9 -10 26 27 33 -3 -10 1 5 5 -20 -20 -20 -20 -20 12 15 25 21 19 -20 -20 -20 -20 -20 4 -19 -20 -0 24 8 22 12 11 -19 -20 -20 -7
6 17 31 14 20 16 24 11 12 36 14 -17 15 32 -3 -20 -20 -20 -20 -20 -15 28 26 -12 2 -20 9 -20 -20 -20 -20 -20 -20 -20 -20 -3 12 27 35 18 -17 -20 -19 -20
10 25 26 15 14 17 17 40 36 33 21 -4 15 -18 15 -20 -20 -20 -20 -20 -10 33 21 34 -6 -19 -18 4 -20 -20 -20 -20 -20 -14 -2 -2 0 -2 7 -17 4 -1 -20 -16
16 16 18 21 19 14 21 22 25 11 -5 -9 4 4 -20 -20 -20 -20 -20 -20 -20 12 -17 28 -2 -20 -20 -20 -20 -20 -20 -20 -12 -20 -18 -12 -20 -20 -20 -20 -20 -20 -20 -20
3 13 13 23 30 14 -20 -18 3 18 8 -1 -3 -8 26 0 13 -2 3 8 6 40 37 38 17 -1 19 10 -20 -20 -20 -20 -20 -20 -20 -20 -20 -20 -20 -20 -19 -15 -20 -20
24 27 29 17 17 29 13 -0 1 11 -18 11 -20 -0 23 1 25 8 19 14 22 21 21 25 17 13 23 29 -19 -20 -20 -20 -20 -20 -20 -20 -20 -20 -20 -20 -20 -20 -20 -20
17 26 31 40 28 6 -16 9 4 24 19 17 11 -19 -3 -15 -20 10 21 8 3 -16 -20 22 10 17 -20 -20 6 -19 -20 -20 -20 -20 -20 -20 -20 -20 -20 -20 -20 -20 -20 -20
22 18 14 10 -6 2 1 0 -4 -18 -12 -20 -20 15 -6 -10 -7 5 13 24 19 16 9 17 19 9 -10 18 10 9 -20 -20 -20 -20 -20 -20 -20 -20 -20 -20 -20 -20 -20 -20
-4 -20 -6 9 30 28 8 -12 26 -8 2 20 10 -2 -20 -1 6 -11 22 17 34 31 11 19 20 12 5 -1 1 -16 -16 -17 -20 -20 -20 -20 -20 -20 -20 -20 -20 -20 -20 -20
-5 17 19 23 -7 -18 3 -18 5 18 -5 11 18 -1 23 27 30 35 39 36 26 34 20 22 24 5 0 -0 -5 -17 -19 -20 -20 -20 -20 -20 -20 -18 3 12 -20 -20 -20 -18
-2 -11 -17 4 -19 -9 2 10 14 12 5 -2 14 26 38 38 37 32 17 28 37 16 3 6 11 9 10 5 4 -17 -5 -10 -9 -10 -8 3 0 5 -6 -4 1 -4 5 15
-20 -20 -4 -2 2 1 3 1 -1 15 5 14 27 34 28 9 8 -3 -0 6 8 3 11 20 15 10 11 10 9 9 6 6 9 12 5 10 10 6 12 16 19 18 18 20
-20 -19 -7 -20 -20 -16 -14 -9 -1 -13 -12 13 -1 17 -5 1 -9 -19 -12 -16 0 7 9 8 9 9 11 11 9 11 13 14 14 15 15 14 12 11 11 10 10 13 14 17
10 9 1 6 3 5 8 5 -5 -18 -7 -0 -11 -20 3 10 -14 -3 4 2 5 4 7 8 6 10 13 15 13 12 9 9 11 10 11 14 15 14 12 10 14 12 12 11